Regional Weather Roundup
Issued by NWS

Home | Current Version | Previous Version | Graphics & Text | Print | Product List | Glossary On
Versions: 1 2 3 4 5 6 7 8 9 10 11 12 13 14 15 16 17 18 19 20 21 22 23 24 25 26 27 28 29 30 31 32 33 34 35 36 37 38 39 40 41 42 43 44 45 46 47 48 49 50
000
ASUS45 KBOU 012210
RWRCO

WEATHER ROUNDUP FOR COLORADO
NATIONAL WEATHER SERVICE PUEBLO CO
400 PM MDT SAT AUG 01 2015

NOTE: "FAIR" INDICATES FEW OR NO CLOUDS BELOW 12000 FEET WITH NO
SIGNIFICANT WEATHER AND/OR OBSTRUCTIONS TO VISIBILITY.

COZ001>005-013-030-031-012300-
...NORTHWEST COLORADO...

CITY           SKY/WX    TMP DP  RH WIND       PRES   REMARKS
CRAIG          MOSUNNY   90  33  13 VRB5      30.15F
HAYDEN         MOSUNNY   86  28  12 E6        30.19F
MEEKER         PTSUNNY   85  40  20 SW6       30.17F
MOUNT WERNER   NOT AVBL
STEAMBOAT SPGS FAIR      84  32  15 SW6       30.21F
WALDEN         FAIR      79  25  13 NW5       30.31F
$$

COZ006>008-011-012300-
...WEST CENTRAL VALLEYS...

CITY           SKY/WX    TMP DP  RH WIND       PRES   REMARKS
GRAND JUNCTION CLOUDY    88  49  25 W3        30.07F
MONTROSE       CLOUDY    85  49  28 W7        30.17F
EAGLE          MOSUNNY   84  34  16 W9        30.21S
RIFLE          PTSUNNY   91  31  11 NW5       30.08F
DELTA          NOT AVBL
NUCLA          FAIR      79  50  36 N6        30.23F
$$

COZ017>023-064>068-012300-
...SOUTHWEST COLORADO...

CITY           SKY/WX    TMP DP  RH WIND       PRES   REMARKS
DURANGO        PTSUNNY   74  55  51 E10       30.28F
CORTEZ         SUNNY     72  55  55 SE18      30.21F THUNDER
PAGOSA SPRINGS CLOUDY    65  58  77 SE3       30.38F
TELLURIDE      PTSUNNY   66  50  57 CALM      30.45F
WOLF CREEK PAS NOT AVBL
$$

COZ009-010-012-014-032>034-037-058>063-012300-
...CENTRAL COLORADO...

CITY           SKY/WX    TMP DP  RH WIND       PRES   REMARKS
ASPEN          PTSUNNY   80  37  21 NW5       30.28F
BUENA VISTA    PTSUNNY   74  38  26 W8        30.30F
COPPER MTN     PTSUNNY   66  28  24 W7        30.66S
BERTHOUD PASS  FAIR      55  45  67 MISG      30.71F
COTTONWOOD PAS CLOUDY    66  36  32 SW17G24   30.47F
GUNNISON       CLOUDY    73  41  31 NE12G22   30.36R
KREMMLING      MOSUNNY   81  23  12 N5        30.25F
LEADVILLE      CLOUDY    68  29  23 N7        30.45F
MONARCH PASS   CLOUDY    52  37  58 NE10      30.76F
SALIDA         PTSUNNY   78  41  26 W5G23     30.34F
NIWOT RIDGE    NOT AVBL
SUNLIGHT       PTSUNNY   68  36  30 N3        30.58F
WILKERSON PASS CLOUDY    63  32  31 E6        30.61F
$$

COZ069>075-012300-
...SAN LUIS VALLEY/SANGRE DE CRISTO MOUNTAINS...

CITY           SKY/WX    TMP DP  RH WIND       PRES   REMARKS
ALAMOSA        CLOUDY    75  45  34 W18G24    30.29F
LA VETA PASS   RAIN      48  45  87 MISG      30.52F
SAGUACHE       CLOUDY    75  50  41 W8        30.32F
$$

COZ035-036-038>040-012300-
...NORTHERN COLORADO FRONT RANGE...

CITY           SKY/WX    TMP DP  RH WIND       PRES   REMARKS
DENVER INTL AP PTSUNNY   93  33  12 N8        30.07F
DMNS CITY PARK NOT AVBL
AURORA         PTSUNNY   91  37  15 SE5       30.10F
FRONT RANGE AP NOT AVBL
ERIE MUNI ARPT FAIR      92  33  12 MISG      30.05F
BOULDER MUN AP FAIR      88  46  23 CALM      30.07F
CENTENNIAL     MOSUNNY   90  32  12 E9        30.11F
BROOMFIELD     PTSUNNY   91  45  19 NW8       30.10F
LOVELAND       MOSUNNY   93  45  18 SW7       30.01F
LONGMONT       FAIR      96  44  16 NE6       30.06F
$$

COZ041-046-047-076>085-087-088-012300-
...PIKES PEAK/PALMER DIVIDE AND SOUTHERN FOOTHILLS...

CITY           SKY/WX    TMP DP  RH WIND       PRES   REMARKS
COLO. SPRINGS  PTSUNNY   86  49  27 SE10      30.16F THUNDER
A. F. ACADEMY  PTSUNNY   82  49  32 S14       30.17F
ELLICOTT       FAIR     N/A N/A N/A E9G18     30.15F THUNDER
FALCON         TSTM      71  60  67 E12       30.24S
FORT CARSON    PTSUNNY   84  52  33 W9        30.13F
LIMON          SUNNY     87  49  26 SE9G17    30.11F
MONUMENT HILL  NOT AVBL
TRINIDAD       PTSUNNY   83  50  31 SW9G25    30.14S
$$

COZ042>045-048>051-090-091-012300-
...NORTHEAST COLORADO...

CITY           SKY/WX    TMP DP  RH WIND       PRES   REMARKS
GREELEY ARPT   SUNNY     93  36  13 N6        30.02F
AKRON          MOSUNNY   91  51  25 SE18G24   30.05F
BURLINGTON     SUNNY     87  52  29 S16G23    30.07F
WRAY           FAIR      95  46  18 SE16G22   30.02F
STERLING       FAIR      91  55  29 S16       29.98F
HOLYOKE        NOT AVBL
FORT MORGAN    FAIR      94  40  15 SE8       30.02F
$$

COZ086-089-092>099-012300-
...SOUTHEAST COLORADO...

CITY           SKY/WX    TMP DP  RH WIND       PRES   REMARKS
PUEBLO         PTSUNNY   94  50  22 VRB7      30.03F
LA JUNTA       SUNNY     96  54  24 E15       30.01F
LAMAR          MOSUNNY   94  60  32 SE16G23   29.98F
SPRINGFIELD      N/A     89  60  37 S14       30.05F
$$




USA.gov is the U.S. government's official web portal to all federal, state and local government web resources and services.